Change the Weather History Date:

Tuesday, December 11, 2012

  Actual Average Record
Temperature  
Mean Temperature 66 °F -  
Max Temperature 80 °F 79 °F 87 °F (2004)
Min Temperature 53 °F 54 °F 50 °F (1998)
Cooling Degree Days 2    
Growing Degree Days 16 (Base 50)    
Moisture  
Dew Point 54 °F    
Average Humidity 72    
Maximum Humidity 94    
Minimum Humidity 39    
Precipitation  
Precipitation 0.00 in - - ()
Sea Level Pressure  
Sea Level Pressure 29.90 in    
Wind  
Wind Speed 7 mph ()    
Max Wind Speed 13 mph    
Max Gust Speed -    
Visibility 11.3 miles    
Events      
Averages and records for this station are not official NWS values.
T = Trace of Precipitation, MM = Missing Value Source: Averaged Metar Reports

Daily Weather History Graph

Daily Weather History Graph

Search for Another Location

Airport or City:

Trip Planner

Search our weather history database for the weather conditions in past years. The results will help you decide how hot, cold, wet, or windy it might be!

Date:

Astronomy

Dec. 11, 2012 Rise Set
Actual Time 6:36 AM MST 5:20 PM MST
Civil Twilight 6:11 AM MST 5:45 PM MST
Nautical Twilight 5:43 AM MST 6:13 PM MST
Astronomical Twilight 5:16 AM MST 6:40 PM MST
Moon 4:40 AM MST (12/11) 3:57 PM MST (12/11)
Length of Visible Light 11h 33m
Length of Day
10h 44m
Waning Crescent, 4% of the Moon is Illuminated
Dec 11
Waning Crescent
Dec 13
New
Dec 19
First Quarter
Dec 28
Full
Jan 4
Last Quarter

Hourly Weather History & Observations

Time (MST) Temp. Heat Index Dew Point Humidity Pressure Visibility Wind Dir Wind Speed Gust Speed Precip Events Conditions
12:44 AM 59.0 °F - 55.4 °F 88% 29.88 in 10.0 mi NNE 6.9 mph - N/A   Clear
1:43 AM 57.2 °F - 53.6 °F 88% 29.88 in 10.0 mi NNE 5.8 mph - N/A   Clear
2:44 AM 55.4 °F - 51.8 °F 88% 29.87 in 10.0 mi NNE 6.9 mph - N/A   Clear
3:44 AM 53.6 °F - 50.0 °F 88% 29.87 in 10.0 mi North 6.9 mph - N/A   Clear
4:47 AM 55.4 °F - 51.8 °F 88% 29.86 in 10.0 mi North 9.2 mph - N/A   Clear
5:44 AM 55.4 °F - 53.6 °F 94% 29.88 in 8.0 mi North 6.9 mph - N/A   Partly Cloudy
6:46 AM 55.4 °F - 51.8 °F 88% 29.89 in 10.0 mi WNW 6.9 mph - N/A   Scattered Clouds
7:40 AM 57.2 °F - 55.4 °F 94% 29.91 in 10.0 mi NNE 5.8 mph - N/A   Scattered Clouds
8:42 AM 62.6 °F - 60.8 °F 94% 29.92 in 12.0 mi North 6.9 mph - N/A   Scattered Clouds
9:49 AM 69.8 °F - 60.8 °F 73% 29.94 in 12.0 mi West 5.8 mph - N/A   Partly Cloudy
10:53 AM 77.0 °F - 57.2 °F 50% 29.94 in 12.0 mi SW 10.4 mph - N/A   Partly Cloudy
11:44 AM 78.8 °F - 57.2 °F 47% 29.92 in 15.0 mi WSW 11.5 mph - N/A   Partly Cloudy
12:40 PM 78.8 °F - 55.4 °F 44% 29.89 in 15.0 mi SW 10.4 mph - N/A   Scattered Clouds
1:41 PM 78.8 °F - 53.6 °F 42% 29.88 in 15.0 mi West 12.7 mph - N/A   Partly Cloudy
2:42 PM 80.6 °F 80.3 °F 53.6 °F 39% 29.86 in 15.0 mi WSW 9.2 mph - N/A   Partly Cloudy
3:41 PM 78.8 °F - 53.6 °F 42% 29.85 in 15.0 mi WSW 12.7 mph - N/A   Clear
4:41 PM 73.4 °F - 55.4 °F 53% 29.86 in 12.0 mi WSW 11.5 mph - N/A   Clear
5:44 PM 68.0 °F - 55.4 °F 64% 29.88 in 10.0 mi West 9.2 mph - N/A   Clear
6:43 PM 64.4 °F - 53.6 °F 68% 29.91 in 10.0 mi North 5.8 mph - N/A   Clear
7:42 PM 62.6 °F - 53.6 °F 72% 29.92 in 10.0 mi North 8.1 mph - N/A   Clear
8:47 PM 60.8 °F - 53.6 °F 77% 29.94 in 10.0 mi North 6.9 mph - N/A   Clear
9:42 PM 57.2 °F - 51.8 °F 82% 29.95 in 10.0 mi Calm Calm - N/A   Clear
10:46 PM 57.2 °F - 53.6 °F 88% 29.95 in 10.0 mi NNE 9.2 mph - N/A   Clear
11:42 PM 57.2 °F - 53.6 °F 88% 29.95 in 10.0 mi West 6.9 mph - N/A   Clear